Weather History for Papa, Hungary

Change the Weather History Date:

Saturday, October 1, 2011

  Actual Average Record
Temperature  
Mean Temperature 61 °F -  
Max Temperature 78 °F - - ()
Min Temperature 44 °F - - ()
Degree Days  
Heating Degree Days 4    
Growing Degree Days 11 (Base 50)    
Moisture  
Dew Point 49 °F    
Average Humidity 74    
Maximum Humidity 94    
Minimum Humidity 36    
Precipitation  
Precipitation 0.00 in - - ()
Sea Level Pressure  
Sea Level Pressure 30.30 in    
Wind  
Wind Speed 2 mph ()    
Max Wind Speed 7 mph    
Max Gust Speed -    
Visibility 0.1 miles    
Events      
T = Trace of Precipitation, MM = Missing Value Source: Averaged Metar Reports

Daily Weather History Graph

Daily Weather History Graph

Search for Another Location

Airport:

Trip Planner

Search our weather history database for the weather conditions in past years. The results will help you decide how hot, cold, wet, or windy it might be!

Date:

Astronomy

Oct. 01, 2011 Rise Set
Actual Time 6:48 AM CEST 6:30 PM CEST
Civil Twilight 6:17 AM CEST 7:01 PM CEST
Nautical Twilight 5:42 AM CEST 7:36 PM CEST
Astronomical Twilight 5:05 AM CEST 8:12 PM CEST
Moon 11:58 AM CEST (10/1) 8:46 PM CEST (10/1)
Length of Visible Light 12h 43m
Length of Day
11h 42m
Waxing Crescent, 21% of the Moon is Illuminated
Oct 1
Waxing Crescent
Oct 4
First Quarter
Oct 12
Full
Oct 20
Last Quarter
Oct 26
New

Hourly Weather History & Observations

Time (CEST) Temp. Dew Point Humidity Pressure Visibility Wind Dir Wind Speed Gust Speed Precip Events Conditions
12:15 AM 51.8 °F 48.2 °F 88% 30.33 in - SSE 2.2 mph - N/A   Clear
12:45 AM 50.0 °F 48.2 °F 94% 30.33 in - SSE 2.2 mph - N/A   Clear
1:15 AM 50.0 °F 46.4 °F 87% 30.33 in - SE 2.2 mph - N/A   Clear
1:45 AM 48.2 °F 46.4 °F 93% 30.33 in - Calm Calm - N/A   Clear
2:15 AM 48.2 °F 46.4 °F 93% 30.33 in - Calm Calm - N/A   Clear
2:45 AM 46.4 °F 44.6 °F 93% 30.33 in - Calm Calm - N/A   Clear
3:15 AM 46.4 °F 44.6 °F 93% 30.33 in - Calm Calm - N/A   Clear
3:45 AM 46.4 °F 44.6 °F 93% 30.33 in - South 2.2 mph - N/A   Clear
4:15 AM 48.2 °F 46.4 °F 93% 30.33 in - Calm Calm - N/A   Clear
4:45 AM 48.2 °F 44.6 °F 87% 30.33 in - Calm Calm - N/A   Clear
5:15 AM 48.2 °F 44.6 °F 87% 30.33 in - Calm Calm - N/A   Clear
5:45 AM 48.2 °F 46.4 °F 93% 30.30 in - South 2.2 mph - N/A   Clear
6:15 AM 44.6 °F 42.8 °F 93% 30.33 in - ESE 2.2 mph - N/A   Clear
6:45 AM 46.4 °F 44.6 °F 93% 30.33 in - South 2.2 mph - N/A   Clear
7:15 AM 46.4 °F 44.6 °F 93% 30.33 in - SSE 2.2 mph - N/A   Clear
7:45 AM 48.2 °F 46.4 °F 93% 30.33 in - SSE 2.2 mph - N/A   Clear
8:15 AM 51.8 °F 50.0 °F 94% 30.33 in - Calm Calm - N/A   Clear
8:45 AM 55.4 °F 51.8 °F 88% 30.33 in - SSW 2.2 mph - N/A   Clear
9:15 AM 59.0 °F 51.8 °F 77% 30.33 in - Calm Calm - N/A   Clear
9:45 AM 60.8 °F 51.8 °F 72% 30.33 in - WSW 2.2 mph - N/A   Clear
10:15 AM 62.6 °F 53.6 °F 72% 30.33 in - West 2.2 mph - N/A   Clear
10:45 AM 66.2 °F 53.6 °F 64% 30.33 in - West 2.2 mph - N/A   Clear
11:15 AM 68.0 °F 53.6 °F 60% 30.33 in - West 2.2 mph - N/A   Clear
11:45 AM 69.8 °F 53.6 °F 56% 30.33 in - West 2.2 mph - N/A   Clear
12:15 PM 71.6 °F 53.6 °F 53% 30.33 in - West 4.5 mph - N/A   Clear
12:45 PM 73.4 °F 51.8 °F 47% 30.30 in - West 4.5 mph - N/A   Clear
1:15 PM 75.2 °F 51.8 °F 44% 30.30 in - WSW 2.2 mph - N/A   Clear
1:45 PM 77.0 °F 51.8 °F 41% 30.30 in - West 2.2 mph - N/A   Clear
2:15 PM 77.0 °F 50.0 °F 39% 30.27 in - NW 2.2 mph - N/A   Clear
2:45 PM 78.8 °F 50.0 °F 36% 30.27 in - West 4.5 mph - N/A   Clear
3:15 PM 78.8 °F 51.8 °F 39% 30.27 in - WNW 4.5 mph - N/A   Clear
3:45 PM 78.8 °F 51.8 °F 39% 30.27 in - WNW 4.5 mph - N/A   Clear
4:15 PM 78.8 °F 50.0 °F 36% 30.24 in - NW 6.7 mph - N/A   Clear
5:15 PM 77.0 °F 50.0 °F 39% 30.24 in - NW 4.5 mph - N/A   Clear
5:45 PM 75.2 °F 53.6 °F 47% 30.24 in - WNW 4.5 mph - N/A   Clear
6:15 PM 71.6 °F 53.6 °F 53% 30.24 in - NW 2.2 mph - N/A   Clear
6:45 PM - - N/A% - 0.1 mi Variable 4.5 mph - N/A   Clear
7:15 PM 62.6 °F 53.6 °F 72% 30.24 in - WNW 4.5 mph - N/A   Clear
7:45 PM 60.8 °F 53.6 °F 77% 30.24 in - WNW 4.5 mph - N/A   Clear
8:15 PM 59.0 °F 51.8 °F 77% 30.24 in - West 2.2 mph - N/A   Clear
8:45 PM 57.2 °F 51.8 °F 82% 30.24 in - West 2.2 mph - N/A   Clear
9:15 PM 55.4 °F 50.0 °F 82% 30.24 in - Calm Calm - N/A   Clear
9:45 PM - - N/A% - 0.1 mi Variable 4.5 mph - N/A   Clear
10:15 PM 51.8 °F 50.0 °F 94% 30.24 in - SE 2.2 mph - N/A   Clear
10:45 PM 51.8 °F 48.2 °F 88% 30.24 in - SE 2.2 mph - N/A   Clear
11:15 PM 51.8 °F 48.2 °F 88% 30.24 in - SE 2.2 mph - N/A   Clear
11:45 PM 50.0 °F 46.4 °F 87% 30.27 in - SE 2.2 mph - N/A   Clear